Location: Brachbach
(49.1847°N, 9.7240°E)
Time: 09:46:41
(UTC+00:00)

CZ-2C R/B - Pass Details

Date: 23 May 2024
Orbit: 783 x 868 km, 98.3° (Epoch: 15 June)

Event Time Altitude Azimuth Distance (km) Brightness Sun altitude
Exits shadow 00:47:45 - 144° (SE) 2,445 4.8 -17.4°
Reaches altitude 10° 00:48:02 10° 143° (SE) 2,339 4.7 -17.3°
Maximum altitude 00:53:00 51° 69° (ENE) 980 3.3 -17.0°
Drops below altitude 10° 00:58:01 10° 354° (N) 2,363 5.9 -16.7°
Sets 01:00:25 0° 350° (N) 3,303 6.7 -16.5°
